Location: ??? ???
(33.4974°N, 35.4618°E)
Time: 12:20:53
(UTC+00:00)

Cosmos 1553 Rocket - Pass Details

Date: 29 October 2020
Orbit: 940 x 1009 km, 82.9° (Epoch: 26 November)

Event Time Altitude Azimuth Distance (km) Brightness Sun altitude
Rises 15:52:32 0° 190° (S) 3,717 7.3 -13.8°
Reaches altitude 10° 15:55:05 10° 192° (SSW) 2,765 6.6 -14.4°
Maximum altitude 16:01:26 74° 276° (W) 1,035 4.3 -15.7°
Drops below altitude 10° 16:07:43 10° 2° (N) 2,740 6.3 -17.0°
Sets 16:10:14 0° 4° (N) 3,681 6.9 -17.5°
